This is the latest recevied weather packets stored in our database for station/object KD2SIG. If no packets are shown the sender has not sent any weather packets the latest 10 day(s).
| Time | Temp. | Humidity | Pressure | Rain* | Wind** | Luminosity | Snow |
|---|---|---|---|---|---|---|---|
| 1787754002 | 22.22° C | 86% | 1019.9 hPa | 0 mm | - | 569 W/m² | - |
| 1787753701 | 21.67° C | 86% | 1019.8 hPa | 0 mm | - | 571 W/m² | - |
| 1787753401 | 21.11° C | 86% | 1019.8 hPa | 0 mm | - | 608 W/m² | - |
| 1787753094 | 21.11° C | 87% | 1020 hPa | 0 mm | - | 591 W/m² | - |
| 1787752794 | 21.11° C | 87% | 1019.6 hPa | 0 mm | - | 598 W/m² | - |
| 1787752494 | 21.11° C | 88% | 1019.7 hPa | 0 mm | - | 585 W/m² | - |
| 1787752190 | 20.56° C | 88% | 1019.6 hPa | 0 mm | - | 528 W/m² | - |
| 1787751888 | 20.56° C | 89% | 1019.6 hPa | 0 mm | - | 485 W/m² | - |
| 1787751584 | 20.56° C | 89% | 1019.8 hPa | 0 mm | - | 427 W/m² | - |
| 1787751278 | 21.11° C | 91% | 1019.9 hPa | 0 mm | - | 433 W/m² | - |
| 1787750974 | 20.56° C | 92% | 1019.7 hPa | 0 mm | - | 429 W/m² | - |
| 1787750669 | 20° C | 93% | 1019.7 hPa | 0 mm | - | 355 W/m² | - |
| 1787750363 | 20° C | 94% | 1019.6 hPa | 0 mm | - | 261 W/m² | - |
| 1787750063 | 20° C | 94% | 1019.9 hPa | 0 mm | - | 232 W/m² | - |
| 1787749760 | 20° C | 94% | 1019.6 hPa | 0 mm | - | 187 W/m² | - |
| 1787749455 | 20° C | 94% | 1019.7 hPa | 0 mm | - | 192 W/m² | - |
| 1787749155 | 20° C | 95% | 1019.8 hPa | 0 mm | - | 181 W/m² | - |
| 1787748850 | 20° C | 95% | 1019.8 hPa | 0 mm | - | 199 W/m² | - |
| 1787748550 | 19.44° C | 96% | 1019.6 hPa | 0 mm | - | 204 W/m² | - |
| 1787748246 | 19.44° C | 97% | 1019.6 hPa | 0 mm | - | 173 W/m² | - |
| 1787747941 | 18.89° C | 97% | 1019.4 hPa | 0 mm | - | 188 W/m² | - |
| 1787747635 | 18.33° C | 98% | 1019.4 hPa | 0 mm | - | 157 W/m² | - |
* Rain latest hour (hover to see other rain measurements)
** Current wind speed in m/s (hover to see current wind gust speed)